Flag for U.S.A. Weather past 2 weeks in Raleigh, North Carolina, U.S.A.

Now
74 °F

Passing clouds.


Feels Like: 76 °F
Forecast: 70 / 90 °F
Wind: No wind

Location: Raleigh-Durham International Airport

Current Time: Aug 3, 2015 at 12:45:16 AM

Latest Report: Aug 2, 2015 at 11:51 PM


Visibility: 10 mi

Pressure: 29.93 "Hg

Humidity: 64%

Dew point: 61 °F

Location of RaleighLocation

Historic Weather in Raleigh — Graph

°F

Raleigh temperature yesterday

Maximum temperature yesterday: 90 °F (at 4:51 PM)
Minimum temperature yesterday: 67 °F (at 5:51 AM)
Average temperature yesterday: 79 °F

Past Weeks' High & Low Weather Summary

 TemperatureHumidityPressure
High94 °F (Jul 30, 3:51 PM)97% (Jul 21, 8:51 PM)30.04 "Hg (Jul 21, 8:51 PM)
Low64 °F (Jul 25, 5:51 AM)29% (Aug 1, 3:51 PM)29.68 "Hg (Jul 21, 5:51 PM)
Average80 °F70%29.92 "Hg
* Reported Jul 18 10:51 PM — Aug 2 10:51 PM, Raleigh, Weather by CustomWeather, © 2015

Note: Actual official high and low records may vary slightly from our data, if they occured in-between our weather recording intervals... More about our weather records

Advertising

Raleigh weather history for previous 24 hours

 ConditionsComfort  
Time TempWeatherWind HumidityBarometerVisibility
10:51 PM
Sun, Aug 2
73 °FPartly cloudy.No wind66%29.94 "Hg10 mi
9:51 PM76 °FPassing clouds.3 mph60%29.93 "Hg10 mi
8:51 PM78 °FScattered clouds.No wind50%29.91 "Hg10 mi
7:51 PM84 °FScattered clouds.5 mph38%29.91 "Hg10 mi
6:51 PM87 °FScattered clouds.7 mph40%29.92 "Hg10 mi
5:51 PM88 °FScattered clouds.6 mph36%29.92 "Hg10 mi
4:51 PM90 °FScattered clouds.5 mph34%29.93 "Hg10 mi
3:51 PM89 °FScattered clouds.8 mph35%29.93 "Hg10 mi
2:51 PM88 °FScattered clouds.6 mph35%29.94 "Hg10 mi
1:51 PM87 °FScattered clouds.5 mph39%29.96 "Hg10 mi
12:51 PM85 °FPartly sunny.7 mph42%29.97 "Hg10 mi
11:51 AM84 °FPartly sunny.6 mph46%29.98 "Hg10 mi
10:51 AM82 °FPartly sunny.10 mph44%29.98 "Hg10 mi
9:51 AM79 °FPartly sunny.6 mph52%29.97 "Hg10 mi
8:51 AM76 °FPartly sunny.6 mph56%29.96 "Hg10 mi
7:51 AM73 °FPartly sunny.No wind69%29.96 "Hg10 mi
6:51 AM67 °FPassing clouds.No wind79%29.95 "Hg10 mi
5:51 AM67 °FPassing clouds.3 mph79%29.93 "Hg10 mi
4:51 AM68 °FPassing clouds.No wind78%29.91 "Hg10 mi
3:51 AM72 °FPassing clouds.3 mph66%29.91 "Hg10 mi
2:51 AM72 °FClear.No wind68%29.92 "Hg10 mi
1:51 AM74 °FPassing clouds.No wind67%29.91 "Hg10 mi
12:51 AM70 °FPassing clouds.No wind81%29.92 "Hg10 mi
Weather by CustomWeather, © 2015

See weather overviewHow to use our weather pages